This is the latest recevied weather packets stored in our database for station/object CE3MXM-12. If no packets are shown the sender has not sent any weather packets the latest 10 day(s).
| Time | Temp. | Humidity | Pressure | Rain* | Wind** | Luminosity | Snow |
|---|---|---|---|---|---|---|---|
| 1778011210 | 15° C | 74% | 1013 hPa | - | - | - | - |
| 1778010911 | 15.56° C | 71% | 1012.9 hPa | - | - | - | - |
| 1778010610 | 15.56° C | 71% | 1012.8 hPa | - | - | - | - |
| 1778010310 | 15.56° C | 69% | 1012.9 hPa | - | - | - | - |
| 1778010010 | 15.56° C | 67% | 1012.7 hPa | - | - | - | - |
| 1778009712 | 15.56° C | 67% | 1012.4 hPa | - | - | - | - |
| 1778009409 | 15.56° C | 66% | 1012.7 hPa | - | - | - | - |
| 1778009109 | 16.11° C | 66% | 1012.6 hPa | - | - | - | - |
| 1778008809 | 16.11° C | 66% | 1012.8 hPa | - | - | - | - |
| 1778008509 | 16.67° C | 64% | 1012.8 hPa | - | - | - | - |
| 1778008209 | 17.22° C | 62% | 1012.7 hPa | - | - | - | - |
| 1778007909 | 17.22° C | 62% | 1012.5 hPa | - | - | - | - |
| 1778007609 | 17.22° C | 61% | 1012.2 hPa | - | - | - | - |
| 1778007309 | 17.78° C | 60% | 1012.4 hPa | - | - | - | - |
| 1778007011 | 17.78° C | 61% | 1012.2 hPa | - | - | - | - |
| 1778006709 | 17.78° C | 60% | 1012.3 hPa | - | - | - | - |
| 1778006408 | 18.33° C | 61% | 1012.1 hPa | - | - | - | - |
| 1778006108 | 17.78° C | 61% | 1012.1 hPa | - | - | - | - |
| 1778005808 | 17.78° C | 61% | 1012.1 hPa | - | - | - | - |
| 1778005508 | 17.78° C | 60% | 1011.9 hPa | - | - | - | - |
| 1778005208 | 17.78° C | 61% | 1011.9 hPa | - | - | - | - |
| 1778004908 | 17.78° C | 61% | 1011.9 hPa | - | - | - | - |
| 1778004608 | 17.78° C | 61% | 1012.1 hPa | - | - | - | - |
| 1778004308 | 17.78° C | 62% | 1011.9 hPa | - | - | - | - |
| 1778004008 | 17.22° C | 63% | 1011.9 hPa | - | - | - | - |
* Rain since midnight (hover to see other rain measurements)
** Current wind speed in m/s (hover to see current wind gust speed)